This is the latest recevied weather packets stored in our database for station/object VE3TEJ. If no packets are shown the sender has not sent any weather packets the latest 1 day(s).
| Time | Temp. | Humidity | Pressure | Rain* | Wind** | Luminosity | Snow |
|---|---|---|---|---|---|---|---|
| 1778093558 | 8.89° C | 56% | 1010.6 hPa | 0 mm | - | - | - |
| 1778092659 | 9.44° C | 57% | 1010.4 hPa | 0 mm | - | - | - |
| 1778092058 | 8.89° C | 56% | 1010.2 hPa | 0 mm | - | - | - |
| 1778089959 | 10° C | 55% | 1009.6 hPa | 0 mm | - | - | - |
| 1778089058 | 10.56° C | 58% | 1009.9 hPa | 0 mm | - | - | - |
| 1778088459 | 10.56° C | 55% | 1009.7 hPa | 0 mm | - | - | - |
| 1778087858 | 10.56° C | 59% | 1009.4 hPa | 0 mm | - | - | - |
| 1778086959 | 11.11° C | 59% | 1009.5 hPa | 0 mm | - | - | - |
| 1778086358 | 11.11° C | 60% | 1009.1 hPa | 0 mm | - | - | - |
| 1778085757 | 10.56° C | 62% | 1009.5 hPa | 0 mm | - | - | - |
| 1778085459 | 10.56° C | 60% | 1009.4 hPa | 0 mm | - | - | - |
| 1778084858 | 11.11° C | 62% | 1009.6 hPa | 0 mm | - | - | - |
| 1778083957 | 10.56° C | 64% | 1009.4 hPa | 0 mm | - | - | - |
| 1778083058 | 10.56° C | 66% | 1009.4 hPa | 0 mm | - | - | - |
| 1778081558 | 10° C | 70% | 1009.2 hPa | 0 mm | - | - | - |
| 1778080957 | 10° C | 71% | 1009.1 hPa | 0 mm | - | - | - |
| 1778080058 | 10° C | 73% | 1008.9 hPa | 0 mm | - | - | - |
| 1778078558 | 10° C | 78% | 1008.3 hPa | 0 mm | - | - | - |
| 1778077959 | 8.89° C | 79% | 1008.6 hPa | 0 mm | - | - | - |
| 1778077358 | 8.89° C | 82% | 1008.3 hPa | 0 mm | - | - | - |
| 1778077058 | 8.33° C | 84% | 1008.3 hPa | 0 mm | - | - | - |
| 1778076459 | 7.78° C | 85% | 1008.2 hPa | 0 mm | - | - | - |
| 1778075858 | 7.78° C | 86% | 1007.8 hPa | 0 mm | - | - | - |
| 1778075259 | 7.22° C | 88% | 1008.1 hPa | 0 mm | - | - | - |
| 1778073759 | 6.67° C | 88% | 1008 hPa | 0 mm | - | - | - |
* Rain latest hour (hover to see other rain measurements)
** Current wind speed in m/s (hover to see current wind gust speed)